Regional Weather Roundup
Issued by NWS

Home | Current Version | Previous Version | Graphics & Text | Print | Product List | Glossary On
Versions: 1 2 3 4 5 6 7 8 9 10 11 12 13 14 15 16 17 18 19 20 21 22 23 24 25 26 27 28 29 30 31 32 33 34 35 36 37 38 39 40 41 42 43 44 45 46 47 48 49 50
000
ASUS43 KTOP 260508
RWRKS

WEATHER ROUNDUP FOR KANSAS
NATIONAL WEATHER SERVICE GOODLAND KS
1100 PM CST SAT FEB 25 2017

NOTE:  "FAIR" INDICATES FEW OR NO CLOUDS BELOW 12,000 FEET WITH NO
SIGNIFICANT WEATHER AND/OR OBSTRUCTIONS TO VISIBILITY.

KSZ001>006-013>018-027>032-041>047-260600-
NORTHWEST KANSAS

CITY           SKY/WX    TMP DP  RH WIND       PRES   REMARKS
GOODLAND       PTCLDY    20  10  65 N5        29.86R
HAYS           PTCLDY    34  13  41 CALM      29.93R
HILL CITY      MOCLDY    29  13  51 CALM      29.92R
RUSSELL        MOCLDY    34  14  43 S9        29.92R
$$

KSZ061>065-074>080-084>089-260600-
SOUTHWEST KANSAS

CITY           SKY/WX    TMP DP  RH WIND       PRES   REMARKS
DODGE CITY     CLOUDY    36  14  40 S16       29.89R WCI  26
ELKHART          N/A     33  11  40 W2          N/A
GARDEN CITY    MOCLDY    37  16  42 S8        29.84S
GREAT BEND     CLEAR     32  16  51 SE13      29.93S WCI  22
LIBERAL        PTCLDY    36  14  41 SE14      29.82F WCI  27
PRATT          CLOUDY    31  15  51 S10       29.94S WCI  22
$$

KSZ066>073-081>083-090>101-260600-
SOUTHEAST KANSAS

CITY           SKY/WX    TMP DP  RH WIND       PRES   REMARKS
CHANUTE        CLEAR     29  14  53 SE7       30.05F
COFFEYVILLE    CLEAR     33  16  49 S7        30.08F
HUTCHINSON     PTCLDY    30  18  60 SE9       29.96F
MEDICINE LODGE   N/A     33  18  53 S10       29.96S WCI  25
NEWTON         CLEAR     30  19  63 S9        29.98F
PARSONS        CLEAR     33  14  45 SE5       30.07F
WICHITA INTL   CLEAR     31  18  58 SE7       29.99S
WICHITA JABRA  PTCLDY    30  18  60 S7        29.99F
WICHITA MCCONL CLEAR     32  17  54 S7        29.99S
WINFIELD       CLEAR     33  19  56 SE5       30.02S
$$

KSZ007>012-019>026-033>040-048>060-102>105-260600-
NORTHEAST KANSAS

CITY           SKY/WX    TMP DP  RH WIND       PRES   REMARKS
CONCORDIA      PTCLDY    35  16  45 SW17      29.92F WCI  25
EMPORIA        CLEAR     28  17  63 S10       29.99F WCI  19
LAWRENCE       CLEAR     27  14  58 SE5       30.01F
MANHATTAN      CLEAR     35  18  49 SW13      29.96F WCI  26
MARYSVILLE     CLOUDY    32  19  59 S9        29.94F
OLATHE IND     CLEAR     32  13  45 S9        30.02F
OLATHE EXE     CLEAR     33  13  43 S9        30.02F
SALINA         CLEAR     33  16  49 S10       29.95S WCI  25
TOPEKA BILLARD CLEAR     34  14  43 S5        29.99F
TOPEKA FORBES  CLEAR     34  14  43 S8        29.98F
$$



USA.gov is the U.S. government's official web portal to all federal, state and local government web resources and services.